EW3067 Weather Reports


time (UTC)temp
F
wind
direction
speed
knots
gust
knots
rain 1hr
in
rain 24hr
in
rain mn
in
humidity
%
barometer
mb
20260505212259 85 284 7.0 13.9 0.00 0.00 0.00 52 1003.0
20260505212159 85 283 6.1 11.3 0.00 0.00 0.00 53 1003.1
20260505212059 85 290 7.0 11.3 0.00 0.00 0.00 54 1003.0
20260505212001 85 291 7.0 11.3 0.00 0.00 0.00 52 1003.1
20260505211859 86 272 8.7 11.3 0.00 0.00 0.00 54 1003.0
20260505211759 86 296 7.8 11.3 0.00 0.00 0.00 54 1002.9
20260505211700 86 305 7.0 11.3 0.00 0.00 0.00 54 1002.9
20260505211559 87 290 7.0 11.3 0.00 0.00 0.00 58 1002.8
20260505211500 87 271 7.0 11.3 0.00 0.00 0.00 57 1002.8
20260505211400 87 275 4.3 11.3 0.00 0.00 0.00 59 1002.8
20260505211300 87 265 1.7 10.4 0.00 0.00 0.00 60 1002.9
20260505211100 87 233 2.6 10.4 0.00 0.00 0.00 60 1002.9
20260505211000 87 237 2.6 10.4 0.00 0.00 0.00 60 1002.9
20260505210901 87 276 2.6 10.4 0.00 0.00 0.00 61 1002.9
20260505210800 86 249 2.6 10.4 0.00 0.00 0.00 60 1003.0
20260505210700 86 234 2.6 10.4 0.00 0.00 0.00 61 1003.1
20260505210600 86 250 2.6 10.4 0.00 0.00 0.00 60 1003.2
20260505210502 86 238 3.5 10.4 0.00 0.00 0.00 60 1003.1
20260505210359 86 243 4.3 10.4 0.00 0.00 0.00 60 1003.1
20260505210259 86 226 5.2 13.0 0.00 0.00 0.00 60 1003.1
20260505210059 86 222 4.3 13.0 0.00 0.00 0.00 61 1001.8
20260505210002 86 246 4.3 13.0 0.00 0.00 0.00 61 1003.1
20260505205900 85 216 5.2 13.0 0.00 0.00 0.00 61 1003.0
20260505205800 85 248 6.1 13.0 0.00 0.00 0.00 61 1003.1
20260505205701 85 238 7.0 13.0 0.00 0.00 0.00 61 1003.1
20260505205600 85 230 5.2 12.2 0.00 0.00 0.00 60 1003.0
20260505205500 85 250 4.3 12.2 0.00 0.00 0.00 62 1003.1
20260505205400 85 238 4.3 12.2 0.00 0.00 0.00 61 1003.1
20260505205300 85 244 4.3 12.2 0.00 0.00 0.00 60 1003.1
20260505205200 85 247 4.3 12.2 0.00 0.00 0.00 62 1003.1
20260505205100 85 244 4.3 12.2 0.00 0.00 0.00 61 1003.1
20260505205000 85 229 4.3 12.2 0.00 0.00 0.00 60 1003.1
20260505204801 85 207 6.1 12.2 0.00 0.00 0.00 60 1003.1
20260505204700 86 240 7.0 12.2 0.00 0.00 0.00 60 1003.1
20260505204604 86 261 7.8 12.2 0.00 0.00 0.00 60 1001.8
20260505204601 86 261 7.8 12.2 0.00 0.00 0.00 60 1003.1
20260505204501 86 242 7.8 12.2 0.00 0.00 0.00 60 1003.2
20260505204400 86 244 7.0 12.2 0.00 0.00 0.00 60 1003.3
20260505204202 86 254 5.2 9.6 0.00 0.00 0.00 61 1003.2
20260505204101 86 239 4.3 8.7 0.00 0.00 0.00 61 1003.1
20260505204001 86 214 3.5 8.7 0.00 0.00 0.00 62 1003.2
20260505203902 86 202 4.3 8.7 0.00 0.00 0.00 63 1003.1
20260505203801 86 220 5.2 8.7 0.00 0.00 0.00 62 1003.1
20260505203702 86 250 5.2 9.6 0.00 0.00 0.00 61 1003.1
20260505203601 86 235 4.3 10.4 0.00 0.00 0.00 61 1003.1
20260505203500 85 227 3.5 10.4 0.00 0.00 0.00 63 1003.1
20260505203401 85 212 2.6 10.4 0.00 0.00 0.00 63 1003.1
20260505203300 85 198 2.6 10.4 0.00 0.00 0.00 64 1003.1
20260505203203 85 231 2.6 10.4 0.00 0.00 0.00 62 1003.2
20260505203110 85 208 4.3 10.4 0.00 0.00 0.00 62 1001.8
20260505203100 85 208 4.3 10.4 0.00 0.00 0.00 62 1003.1
20260505203000 85 241 6.1 10.4 0.00 0.00 0.00 61 1003.2
20260505202900 85 236 6.1 10.4 0.00 0.00 0.00 61 1003.2
20260505202800 85 223 5.2 10.4 0.00 0.00 0.00 62 1003.2
20260505202500 85 200 3.5 10.4 0.00 0.00 0.00 62 1003.3
20260505202401 85 207 3.5 10.4 0.00 0.00 0.00 62 1003.3
20260505202300 85 223 4.3 10.4 0.00 0.00 0.00 62 1003.3
20260505202101 85 201 4.3 10.4 0.00 0.00 0.00 62 1003.2
20260505202000 85 241 3.5 8.7 0.00 0.00 0.00 62 1003.3
20260505201900 85 236 3.5 8.7 0.00 0.00 0.00 63 1003.4
20260505201800 85 222 3.5 8.7 0.00 0.00 0.00 63 1003.4
20260505201700 85 219 2.6 8.7 0.00 0.00 0.00 63 1003.4
20260505201601 85 205 3.5 8.7 0.00 0.00 0.00 64 1003.4
20260505201500 85 224 4.3 8.7 0.00 0.00 0.00 62 1003.3
20260505201401 85 242 4.3 8.7 0.00 0.00 0.00 62 1003.3
20260505201201 85 230 4.3 13.0 0.00 0.00 0.00 61 1003.4
20260505201100 85 257 3.5 13.0 0.00 0.00 0.00 62 1003.4
20260505201001 85 215 3.5 13.0 0.00 0.00 0.00 63 1003.4
20260505200902 85 205 4.3 13.0 0.00 0.00 0.00 61 1003.4
20260505200801 85 224 4.3 13.0 0.00 0.00 0.00 62 1003.5
20260505200603 85 238 5.2 13.0 0.00 0.00 0.00 61 1003.4
20260505200500 85 211 6.1 13.0 0.00 0.00 0.00 61 1003.3
20260505200400 85 227 7.0 13.0 0.00 0.00 0.00 61 1003.3
20260505200301 85 212 7.0 13.0 0.00 0.00 0.00 61 1003.2
20260505200201 85 262 7.0 13.0 0.00 0.00 0.00 61 1003.4
20260505200100 85 223 6.1 13.0 0.00 0.00 0.00 61 1002.1
20260505200001 85 198 6.1 13.0 0.00 0.00 0.00 61 1003.4
20260505195900 85 215 5.2 9.6 0.00 0.00 0.00 61 1003.4
20260505195800 85 178 5.2 9.6 0.00 0.00 0.00 61 1003.5
20260505195700 85 215 5.2 13.0 0.00 0.00 0.00 62 1003.5
20260505195600 85 221 5.2 13.0 0.00 0.00 0.00 61 1003.5
20260505195500 85 204 4.3 12.2 0.00 0.00 0.00 61 1003.5
20260505195400 85 223 5.2 12.2 0.00 0.00 0.00 61 1003.4
20260505195300 85 221 5.2 12.2 0.00 0.00 0.00 60 1003.6
20260505195100 85 243 5.2 12.2 0.00 0.00 0.00 61 1003.5
20260505195000 85 186 4.3 12.2 0.00 0.00 0.00 63 1003.5
20260505194900 85 232 5.2 12.2 0.00 0.00 0.00 61 1003.4
20260505194759 85 188 5.2 12.2 0.00 0.00 0.00 63 1003.5
20260505194700 85 220 6.1 13.0 0.00 0.00 0.00 63 1003.5
20260505194619 85 251 5.2 10.4 0.00 0.00 0.00 63 1002.1
20260505194600 85 251 5.2 10.4 0.00 0.00 0.00 63 1003.4
20260505194459 85 235 6.1 10.4 0.00 0.00 0.00 63 1003.4
20260505194359 84 206 5.2 10.4 0.00 0.00 0.00 62 1003.5
20260505194259 84 213 6.1 10.4 0.00 0.00 0.00 63 1003.6
20260505194200 84 238 6.1 10.4 0.00 0.00 0.00 64 1003.5
20260505194000 84 228 5.2 11.3 0.00 0.00 0.00 63 1003.6
20260505193859 84 198 4.3 9.6 0.00 0.00 0.00 63 1003.6
20260505193759 84 218 5.2 9.6 0.00 0.00 0.00 62 1003.6
20260505193459 84 244 4.3 11.3 0.00 0.00 0.00 63 1003.6
20260505193359 84 238 4.3 11.3 0.00 0.00 0.00 63 1003.5
20260505193300 84 196 4.3 11.3 0.00 0.00 0.00 63 1003.6
20260505193200 84 248 3.5 11.3 0.00 0.00 0.00 62 1003.5
20260505193106 84 215 4.3 11.3 0.00 0.00 0.00 62 1002.2
20260505193059 84 215 4.3 11.3 0.00 0.00 0.00 62 1003.5
20260505192959 85 192 5.2 10.4 0.00 0.00 0.00 61 1003.5
20260505192800 85 202 4.3 10.4 0.00 0.00 0.00 62 1003.5
20260505192700 85 207 4.3 10.4 0.00 0.00 0.00 62 1003.5
20260505192601 85 207 3.5 10.4 0.00 0.00 0.00 61 1003.5
20260505192459 85 242 3.5 11.3 0.00 0.00 0.00 63 1003.5
20260505192401 85 219 3.5 11.3 0.00 0.00 0.00 63 1003.6
20260505192300 84 220 4.3 11.3 0.00 0.00 0.00 63 1003.5
20260505192159 84 246 6.1 11.3 0.00 0.00 0.00 62 1003.5
20260505192100 84 228 7.0 11.3 0.00 0.00 0.00 62 1003.6
20260505191901 84 226 6.1 11.3 0.00 0.00 0.00 62 1003.5
20260505191800 84 229 5.2 10.4 0.00 0.00 0.00 63 1003.5
20260505191701 84 242 5.2 10.4 0.00 0.00 0.00 63 1003.4
20260505191609 84 245 5.2 12.2 0.00 0.00 0.00 64 1002.1
20260505191601 84 241 6.1 12.2 0.00 0.00 0.00 64 1003.4
20260505191359 83 246 5.2 12.2 0.00 0.00 0.00 64 1003.2
20260505191300 83 201 6.1 12.2 0.00 0.00 0.00 62 1003.3
20260505191201 83 241 6.1 12.2 0.00 0.00 0.00 63 1003.4
20260505191100 83 268 5.2 12.2 0.00 0.00 0.00 65 1003.5
20260505190959 83 229 6.1 12.2 0.00 0.00 0.00 64 1003.3
20260505190900 83 223 6.1 12.2 0.00 0.00 0.00 64 1003.4
20260505190800 83 220 5.2 9.6 0.00 0.00 0.00 65 1003.4
20260505190701 83 203 4.3 8.7 0.00 0.00 0.00 65 1003.3
20260505190402 82 236 4.3 10.4 0.00 0.00 0.00 65 1003.4
20260505190300 82 221 5.2 10.4 0.00 0.00 0.00 65 1003.3
20260505190201 82 234 4.3 10.4 0.00 0.00 0.00 65 1003.4
20260505190100 82 191 4.3 10.4 0.00 0.00 0.00 65 1003.4
20260505190059 82 191 3.5 10.4 0.00 0.00 0.00 65 1002.1
20260505190000 82 216 4.3 10.4 0.00 0.00 0.00 65 1003.4
20260505185859 82 243 5.2 10.4 0.00 0.00 0.00 65 1003.6
20260505185759 82 215 5.2 10.4 0.00 0.00 0.00 65 1003.5
20260505185559 81 239 4.3 10.4 0.00 0.00 0.00 66 1003.5
20260505185458 81 184 4.3 10.4 0.00 0.00 0.00 66 1003.5
20260505185359 81 240 4.3 8.7 0.00 0.00 0.00 67 1003.6
20260505185259 81 229 4.3 8.7 0.00 0.00 0.00 67 1003.5
20260505185158 81 246 4.3 8.7 0.00 0.00 0.00 67 1003.5
20260505185058 81 248 3.5 12.2 0.00 0.00 0.00 67 1003.5
20260505184859 81 234 3.5 12.2 0.00 0.00 0.00 67 1003.5
20260505184800 81 238 4.3 12.2 0.00 0.00 0.00 66 1003.5
20260505184658 81 217 4.3 12.2 0.00 0.00 0.00 66 1003.5
20260505184558 81 242 4.3 12.2 0.00 0.00 0.00 67 1003.5
20260505184459 81 205 4.3 12.2 0.00 0.00 0.00 67 1003.5
20260505184258 81 227 5.2 11.3 0.00 0.00 0.00 66 1003.5
20260505184159 81 235 4.3 11.3 0.00 0.00 0.00 66 1003.4
20260505184058 81 197 3.5 10.4 0.00 0.00 0.00 66 1003.5
20260505183958 81 186 4.3 10.4 0.00 0.00 0.00 66 1003.5
20260505183758 81 191 6.1 10.4 0.00 0.00 0.00 66 1003.6
20260505183658 81 192 5.2 10.4 0.00 0.00 0.00 66 1003.6
20260505183559 81 227 4.3 10.4 0.00 0.00 0.00 66 1003.6
20260505183458 81 209 4.3 8.7 0.00 0.00 0.00 66 1003.6
20260505183159 81 235 4.3 8.7 0.00 0.00 0.00 66 1003.5
20260505183059 81 163 4.3 8.7 0.00 0.00 0.00 66 1003.5
20260505182957 81 236 3.5 11.3 0.00 0.00 0.00 67 1003.5
20260505182858 81 232 2.6 11.3 0.00 0.00 0.00 67 1003.5
20260505182757 80 190 3.5 10.4 0.00 0.00 0.00 68 1003.5
20260505182659 80 198 4.3 10.4 0.00 0.00 0.00 66 1003.5
20260505182559 80 236 4.3 10.4 0.00 0.00 0.00 66 1003.5
20260505182458 80 235 5.2 10.4 0.00 0.00 0.00 66 1003.5
20260505182358 80 269 5.2 10.4 0.00 0.00 0.00 66 1003.6
20260505182258 80 221 6.1 11.3 0.00 0.00 0.00 65 1003.7
20260505182158 80 221 5.2 11.3 0.00 0.00 0.00 66 1003.8
20260505181959 81 223 5.2 13.0 0.00 0.00 0.00 66 1003.6
20260505181757 81 217 6.1 13.9 0.00 0.00 0.00 66 1003.7
20260505181700 81 246 4.3 13.9 0.00 0.00 0.00 67 1003.6
20260505181558 81 257 3.5 13.9 0.00 0.00 0.00 67 1002.3
20260505181459 81 229 4.3 13.9 0.00 0.00 0.00 67 1003.6
20260505181359 81 229 5.2 13.9 0.00 0.00 0.00 66 1003.7
20260505181159 81 234 7.0 13.9 0.00 0.00 0.00 65 1003.6
20260505181058 81 235 7.8 13.9 0.00 0.00 0.00 65 1003.7
20260505180959 81 218 7.8 13.9 0.00 0.00 0.00 65 1003.5
20260505180858 81 248 7.0 12.2 0.00 0.00 0.00 65 1003.5
20260505180758 81 246 7.0 12.2 0.00 0.00 0.00 64 1003.6
20260505180458 81 202 4.3 12.2 0.00 0.00 0.00 65 1003.7
20260505180358 81 250 5.2 12.2 0.00 0.00 0.00 65 1003.6
20260505180258 81 181 7.0 12.2 0.00 0.00 0.00 64 1003.6
20260505180159 81 229 6.1 12.2 0.00 0.00 0.00 64 1003.6
20260505180100 82 218 6.1 12.2 0.00 0.00 0.00 65 1002.4
20260505180059 82 218 6.1 12.2 0.00 0.00 0.00 65 1003.7
20260505180001 82 188 5.2 12.2 0.00 0.00 0.00 68 1003.6
20260505175900 82 243 5.2 12.2 0.00 0.00 0.00 68 1003.6
20260505175801 81 190 4.3 10.4 0.00 0.00 0.00 68 1003.6
20260505175659 81 246 5.2 11.3 0.00 0.00 0.00 67 1003.6
20260505175600 81 198 5.2 12.2 0.00 0.00 0.00 67 1003.5
20260505175500 81 237 6.1 12.2 0.00 0.00 0.00 67 1003.4
20260505175401 81 229 5.2 12.2 0.00 0.00 0.00 67 1003.6
20260505175259 81 242 4.3 12.2 0.00 0.00 0.00 67 1003.5
20260505175101 81 242 4.3 12.2 0.00 0.00 0.00 69 1003.5
20260505175000 81 241 5.2 12.2 0.00 0.00 0.00 67 1003.5
20260505174859 80 194 6.1 12.2 0.00 0.00 0.00 68 1003.6
20260505174800 80 207 5.2 12.2 0.00 0.00 0.00 68 1003.7
20260505174700 80 236 4.3 12.2 0.00 0.00 0.00 68 1003.7
20260505174600 80 184 2.6 12.2 0.00 0.00 0.00 69 1003.6
20260505174559 80 184 2.6 12.2 0.00 0.00 0.00 69 1002.3
20260505174501 80 230 2.6 12.2 0.00 0.00 0.00 69 1003.6
20260505174358 80 186 3.5 12.2 0.00 0.00 0.00 69 1003.6
20260505174300 80 194 4.3 12.2 0.00 0.00 0.00 69 1003.6
20260505174159 80 204 5.2 12.2 0.00 0.00 0.00 68 1003.6
20260505174059 80 226 4.3 13.9 0.00 0.00 0.00 70 1003.6
20260505173959 80 225 4.3 13.9 0.00 0.00 0.00 70 1003.6
20260505173900 80 184 3.5 13.9 0.00 0.00 0.00 70 1003.7
20260505173759 80 215 3.5 13.9 0.00 0.00 0.00 70 1003.6
20260505173559 80 169 5.2 13.9 0.00 0.00 0.00 69 1003.5
20260505173459 80 196 5.2 13.9 0.00 0.00 0.00 68 1003.5
20260505173400 80 196 4.3 13.0 0.00 0.00 0.00 68 1003.5
20260505173259 80 204 5.2 13.0 0.00 0.00 0.00 68 1003.4
20260505173200 80 234 5.2 13.0 0.00 0.00 0.00 69 1003.5
20260505173113 80 229 5.2 13.0 0.00 0.00 0.00 68 1002.1
20260505173000 80 225 5.2 13.0 0.00 0.00 0.00 70 1003.4
20260505172900 80 211 5.2 13.0 0.00 0.00 0.00 70 1003.4
20260505172800 80 203 5.2 13.0 0.00 0.00 0.00 70 1003.3
20260505172659 79 186 5.2 13.0 0.00 0.00 0.00 70 1003.4
20260505172559 79 147 6.1 13.0 0.00 0.00 0.00 69 1003.4
20260505172500 79 210 6.1 13.0 0.00 0.00 0.00 69 1003.4
20260505172400 79 204 7.0 13.0 0.00 0.00 0.00 69 1003.5
20260505172200 79 210 7.0 13.9 0.00 0.00 0.00 70 1003.5
20260505172100 79 194 5.2 13.9 0.00 0.00 0.00 72 1003.6
20260505172000 79 188 4.3 13.9 0.00 0.00 0.00 72 1003.5
20260505171901 79 229 4.3 13.9 0.00 0.00 0.00 72 1003.5
20260505171801 78 218 6.1 13.9 0.00 0.00 0.00 72 1003.5
20260505171625 78 200 6.1 13.9 0.00 0.00 0.00 72 1002.3
20260505171600 78 200 6.1 13.9 0.00 0.00 0.00 72 1003.5
20260505171500 78 249 5.2 9.6 0.00 0.00 0.00 72 1003.6
20260505171400 78 219 4.3 8.7 0.00 0.00 0.00 74 1003.6
20260505171301 78 220 4.3 8.7 0.00 0.00 0.00 74 1003.7
20260505171201 77 220 3.5 8.7 0.00 0.00 0.00 74 1003.6
20260505171101 77 197 3.5 8.7 0.00 0.00 0.00 74 1003.5
20260505170959 77 186 3.5 8.7 0.00 0.00 0.00 74 1003.5
20260505170901 77 190 4.3 8.7 0.00 0.00 0.00 74 1003.5
20260505170701 77 236 4.3 10.4 0.00 0.00 0.00 74 1003.5
20260505170600 77 178 3.5 10.4 0.00 0.00 0.00 74 1003.5
20260505170459 77 206 2.6 10.4 0.00 0.00 0.00 75 1003.5
20260505170401 77 188 2.6 10.4 0.00 0.00 0.00 75 1003.5
20260505170200 77 236 3.5 10.4 0.00 0.00 0.00 75 1003.6
20260505170059 77 215 4.3 10.4 0.00 0.00 0.00 75 1003.6
20260505165958 77 184 4.3 10.4 0.00 0.00 0.00 75 1003.6
20260505165659 77 254 3.5 8.7 0.00 0.00 0.00 75 1003.6
20260505165559 76 189 3.5 8.7 0.00 0.00 0.00 75 1003.6
20260505165458 76 242 3.5 8.7 0.00 0.00 0.00 75 1003.6
20260505165358 76 171 2.6 9.6 0.00 0.00 0.00 75 1003.5
20260505165258 76 213 2.6 9.6 0.00 0.00 0.00 75 1003.5
20260505165158 76 240 3.5 9.6 0.00 0.00 0.00 75 1003.4
20260505165058 76 227 3.5 9.6 0.00 0.00 0.00 76 1003.4
20260505164958 76 182 3.5 9.6 0.00 0.00 0.00 76 1003.3
20260505164858 76 180 3.5 9.6 0.00 0.00 0.00 76 1003.3
20260505164758 76 198 3.5 9.6 0.00 0.00 0.00 76 1003.5
20260505164658 76 193 3.5 12.2 0.00 0.00 0.00 76 1003.5
20260505164605 76 250 3.5 12.2 0.00 0.00 0.00 76 1002.2
20260505164600 76 250 4.3 12.2 0.00 0.00 0.00 76 1003.5
20260505164458 76 219 4.3 12.2 0.00 0.00 0.00 76 1003.5
20260505164358 76 245 5.2 12.2 0.00 0.00 0.00 75 1003.5
20260505164259 76 202 5.2 12.2 0.00 0.00 0.00 75 1003.5
20260505164058 76 221 5.2 12.2 0.00 0.00 0.00 75 1003.4
20260505163958 76 220 6.1 12.2 0.00 0.00 0.00 75 1003.4
20260505163858 76 196 6.1 12.2 0.00 0.00 0.00 75 1003.4
20260505163759 76 198 6.1 12.2 0.00 0.00 0.00 75 1003.4
20260505163659 76 195 6.1 12.2 0.00 0.00 0.00 75 1003.3
20260505163458 76 192 4.3 10.4 0.00 0.00 0.00 75 1003.4
20260505163358 76 206 4.3 9.6 0.00 0.00 0.00 76 1003.6
20260505163158 76 214 5.2 9.6 0.00 0.00 0.00 75 1003.8
20260505163058 76 202 4.3 9.6 0.00 0.00 0.00 75 1002.5
20260505162958 76 199 4.3 9.6 0.00 0.00 0.00 75 1003.6
20260505162858 76 185 4.3 9.6 0.00 0.00 0.00 76 1003.5
20260505162759 76 186 4.3 9.6 0.00 0.00 0.00 76 1003.4
20260505162658 76 197 4.3 9.6 0.00 0.00 0.00 76 1003.4
20260505162558 76 180 3.5 9.6 0.00 0.00 0.00 76 1003.5
20260505162458 76 201 3.5 9.6 0.00 0.00 0.00 76 1003.6
20260505162359 76 198 3.5 9.6 0.00 0.00 0.00 75 1003.6
20260505162159 76 231 4.3 9.6 0.00 0.00 0.00 75 1003.1
20260505162058 76 206 4.3 9.6 0.00 0.00 0.00 75 1003.1
20260505162000 76 211 3.5 9.6 0.00 0.00 0.00 75 1003.2
20260505161858 76 213 5.2 12.2 0.00 0.00 0.00 75 1003.4
20260505161759 76 202 5.2 12.2 0.00 0.00 0.00 75 1003.6
20260505161658 76 191 5.2 12.2 0.00 0.00 0.00 75 1003.8
20260505161600 76 213 3.5 12.2 0.00 0.00 0.00 75 1002.6
20260505161558 76 213 3.5 12.2 0.00 0.00 0.00 75 1003.9
20260505161458 76 180 4.3 19.1 0.00 0.00 0.00 75 1003.9
20260505161358 76 198 4.3 19.1 0.00 0.00 0.00 75 1003.9
20260505161258 76 247 4.3 19.1 0.00 0.00 0.00 75 1003.8
20260505161200 76 207 6.1 19.1 0.00 0.00 0.00 75 1003.7
20260505161058 76 213 6.1 19.1 0.00 0.00 0.00 74 1003.5
20260505160758 76 230 6.1 19.1 0.00 0.00 0.00 74 1003.2
20260505160658 76 215 7.0 17.4 0.00 0.00 0.00 74 1003.1
20260505160558 76 187 7.0 14.8 0.00 0.00 0.00 74 1003.1
20260505160458 76 207 7.8 14.8 0.00 0.00 0.00 75 1003.1
20260505160359 76 201 6.1 14.8 0.00 0.00 0.00 75 1003.1
20260505160300 76 238 5.2 12.2 0.00 0.00 0.00 77 1003.2
20260505160159 76 197 4.3 10.4 0.00 0.00 0.00 77 1003.2
20260505153300 75 148 2.6 12.2 0.00 0.00 0.00 79 1003.4
20260505153159 75 227 3.5 13.9 0.00 0.00 0.00 78 1003.2
20260505153103 74 226 4.3 13.9 0.00 0.00 0.00 78 1002.0
20260505152959 75 190 5.2 13.9 0.00 0.00 0.00 77 1003.2
20260505152801 75 225 5.2 13.9 0.00 0.00 0.00 78 1003.2
20260505152600 75 183 5.2 13.9 0.00 0.00 0.00 78 1003.2
20260505152459 75 238 6.1 13.9 0.00 0.00 0.00 78 1003.1
20260505152400 75 251 6.1 13.9 0.00 0.00 0.00 78 1003.2
20260505152300 75 215 5.2 13.9 0.00 0.00 0.00 79 1003.1
20260505152001 74 191 6.1 13.9 0.00 0.00 0.00 78 1003.2
20260505151900 74 225 7.0 13.9 0.00 0.00 0.00 78 1003.3
20260505151759 74 191 7.0 14.8 0.00 0.00 0.00 78 1003.3
20260505151702 74 195 6.1 14.8 0.00 0.00 0.00 78 1003.3
20260505151600 74 186 4.3 14.8 0.00 0.00 0.00 78 1002.1
20260505151559 74 186 5.2 14.8 0.00 0.00 0.00 78 1003.4
20260505151500 74 225 6.1 14.8 0.00 0.00 0.00 79 1003.5
20260505151359 74 219 7.0 14.8 0.00 0.00 0.00 78 1003.4
20260505151259 74 215 7.8 14.8 0.00 0.00 0.00 78 1003.4
20260505151200 74 221 7.8 14.8 0.00 0.00 0.00 78 1003.5
20260505151059 74 232 7.8 14.8 0.00 0.00 0.00 78 1003.5
20260505151000 74 172 7.0 14.8 0.00 0.00 0.00 78 1003.5
20260505150859 74 209 6.1 15.6 0.00 0.00 0.00 78 1003.4
20260505150759 74 215 7.0 15.6 0.00 0.00 0.00 78 1003.6
20260505150701 74 226 8.7 15.6 0.00 0.00 0.00 78 1003.5
20260505150559 74 223 8.7 15.6 0.00 0.00 0.00 78 1003.5
20260505150459 74 205 9.6 15.6 0.00 0.00 0.00 78 1003.5
20260505150259 74 246 7.0 15.6 0.00 0.00 0.00 79 1003.5
20260505150200 74 184 6.1 13.9 0.00 0.00 0.00 79 1003.6
20260505150126 74 198 5.2 13.9 0.00 0.00 0.00 79 1002.3
20260505140600 72 198 3.5 13.9 0.00 0.00 0.00 82 1003.3
20260505140458 72 191 4.3 13.9 0.00 0.00 0.00 82 1003.2
20260505140359 72 184 5.2 13.9 0.00 0.00 0.00 82 1003.2
20260505140258 72 227 7.0 13.0 0.00 0.00 0.00 82 1003.2
20260505140158 72 196 7.0 13.0 0.00 0.00 0.00 82 1003.2
20260505130258 71 180 7.0 18.2 0.00 0.00 0.00 82 1003.1
20260505130157 71 191 7.0 18.2 0.00 0.00 0.00 82 1003.0
20260505130103 71 188 7.0 18.2 0.00 0.00 0.00 82 1002.0
20260505124957 71 199 6.1 13.0 0.00 0.00 0.00 82 1003.0
20260505124857 71 195 6.1 13.9 0.00 0.00 0.00 82 1003.1
20260505124657 71 193 4.3 13.9 0.00 0.00 0.00 82 1003.2
20260505124600 71 204 4.3 13.9 0.00 0.00 0.00 82 1001.8
20260505124558 71 204 5.2 13.9 0.00 0.00 0.00 82 1003.0
20260505124357 71 210 6.1 12.2 0.00 0.00 0.00 82 1002.9
20260505124257 71 195 5.2 12.2 0.00 0.00 0.00 82 1002.8
20260505124157 71 201 4.3 13.0 0.00 0.00 0.00 82 1002.9
20260505124057 71 173 4.3 13.0 0.00 0.00 0.00 82 1002.8
20260505123958 71 168 4.3 13.0 0.00 0.00 0.00 82 1002.9
20260505123757 71 203 6.1 13.0 0.00 0.00 0.00 82 1002.7
20260505123657 71 150 7.0 13.0 0.00 0.00 0.00 82 1002.8
20260505123557 71 178 6.1 13.0 0.00 0.00 0.00 82 1002.7
20260505123457 71 202 6.1 13.0 0.00 0.00 0.00 82 1002.9
20260505123356 71 207 6.1 13.0 0.00 0.00 0.00 82 1002.7
20260505123157 71 156 6.1 13.0 0.00 0.00 0.00 82 1002.7
20260505123102 71 197 6.1 13.0 0.00 0.00 0.00 82 1001.6
20260505122957 71 188 6.1 13.0 0.00 0.00 0.00 82 1002.8
20260505122857 71 201 5.2 13.0 0.00 0.00 0.00 82 1002.7
20260505122758 71 169 4.3 13.0 0.00 0.00 0.00 82 1002.7
20260505122658 71 166 4.3 13.0 0.00 0.00 0.00 82 1002.8
20260505122557 71 170 5.2 13.0 0.00 0.00 0.00 82 1002.7
20260505122457 71 180 5.2 13.0 0.00 0.00 0.00 82 1002.7
20260505122357 71 226 6.1 13.0 0.00 0.00 0.00 82 1002.7
20260505122257 71 211 5.2 13.0 0.00 0.00 0.00 82 1002.7
20260505122157 71 184 6.1 13.0 0.00 0.00 0.00 82 1002.6
20260505122057 71 182 7.0 13.0 0.00 0.00 0.00 82 1002.6
20260505121857 71 211 7.0 12.2 0.00 0.00 0.00 83 1002.5
20260505121757 71 181 6.1 12.2 0.00 0.00 0.00 83 1002.7
20260505121658 71 203 6.1 11.3 0.00 0.00 0.00 83 1002.6
20260505121624 71 213 5.2 11.3 0.00 0.00 0.00 83 1001.4
20260505121558 71 213 5.2 11.3 0.00 0.00 0.00 83 1002.6
20260505121457 71 194 5.2 9.6 0.00 0.00 0.00 83 1002.6
20260505121157 71 200 5.2 12.2 0.00 0.00 0.00 83 1002.5
20260505121057 71 181 5.2 12.2 0.00 0.00 0.00 83 1002.6
20260505120958 70 192 5.2 12.2 0.00 0.00 0.00 83 1002.5
20260505120858 70 183 5.2 12.2 0.00 0.00 0.00 83 1002.6
20260505120757 70 211 5.2 12.2 0.00 0.00 0.00 83 1002.6
20260505120659 70 238 5.2 12.2 0.00 0.00 0.00 83 1002.5
20260505120558 70 207 5.2 12.2 0.00 0.00 0.00 83 1002.5
20260505120457 70 228 6.1 12.2 0.00 0.00 0.00 83 1002.5
20260505120357 70 194 5.2 12.2 0.00 0.00 0.00 83 1002.5
20260505120257 70 184 5.2 12.2 0.00 0.00 0.00 83 1002.6
20260505120158 70 168 6.1 12.2 0.00 0.00 0.00 83 1002.5
20260505120058 70 174 5.2 12.2 0.00 0.00 0.00 83 1002.4
20260505115957 70 213 5.2 12.2 0.00 0.00 0.00 83 1002.5
20260505115657 70 193 6.1 10.4 0.00 0.00 0.00 83 1002.5
20260505115557 70 185 6.1 10.4 0.00 0.00 0.00 83 1002.4
20260505115457 70 190 5.2 10.4 0.00 0.00 0.00 83 1002.4
20260505115357 70 188 6.1 10.4 0.00 0.00 0.00 83 1002.4
20260505115257 70 202 6.1 10.4 0.00 0.00 0.00 83 1002.4
20260505115157 70 188 5.2 10.4 0.00 0.00 0.00 83 1002.4
20260505115058 70 196 4.3 10.4 0.00 0.00 0.00 83 1002.4
20260505114957 70 177 5.2 12.2 0.00 0.00 0.00 83 1002.4
20260505114857 70 210 6.1 12.2 0.00 0.00 0.00 83 1002.3
20260505114759 70 179 7.0 12.2 0.00 0.00 0.00 83 1002.4
20260505114658 70 211 6.1 12.2 0.00 0.00 0.00 83 1002.4
20260505114559 70 213 6.1 12.2 0.00 0.00 0.00 83 1002.5
20260505114557 70 213 5.2 12.2 0.00 0.00 0.00 83 1001.3
20260505114457 70 184 6.1 11.3 0.00 0.00 0.00 83 1002.5
20260505114357 70 197 6.1 11.3 0.00 0.00 0.00 83 1002.4
20260505114258 70 174 7.0 11.3 0.00 0.00 0.00 83 1002.4
20260505114157 70 192 6.1 10.4 0.00 0.00 0.00 83 1002.4
20260505113958 70 176 5.2 13.0 0.00 0.00 0.00 83 1002.5
20260505113857 70 178 6.1 13.0 0.00 0.00 0.00 83 1002.4
20260505113757 70 167 6.1 13.0 0.00 0.00 0.00 83 1002.4
20260505113658 70 192 5.2 13.0 0.00 0.00 0.00 83 1002.4
20260505113556 70 200 5.2 13.0 0.00 0.00 0.00 83 1002.4
20260505113457 70 220 5.2 13.0 0.00 0.00 0.00 83 1002.4
20260505113158 70 196 4.3 9.6 0.00 0.00 0.00 82 1002.5
20260505113103 70 182 3.5 9.6 0.00 0.00 0.00 82 1001.4
20260505113058 70 182 3.5 9.6 0.00 0.00 0.00 82 1002.5
20260505112958 70 210 2.6 9.6 0.00 0.00 0.00 82 1002.4
20260505112857 70 191 3.5 9.6 0.00 0.00 0.00 82 1002.5
20260505112757 70 202 3.5 9.6 0.00 0.00 0.00 82 1002.5
20260505112657 70 232 4.3 9.6 0.00 0.00 0.00 82 1002.5
20260505112558 70 178 4.3 9.6 0.00 0.00 0.00 82 1002.6
20260505112457 70 210 5.2 10.4 0.00 0.00 0.00 82 1002.6
20260505112357 71 184 5.2 10.4 0.00 0.00 0.00 82 1002.5
20260505112257 70 178 4.3 10.4 0.00 0.00 0.00 82 1002.5
20260505112158 70 184 4.3 10.4 0.00 0.00 0.00 82 1002.4
20260505112057 71 200 4.3 10.4 0.00 0.00 0.00 82 1002.4
20260505111957 71 178 4.3 10.4 0.00 0.00 0.00 82 1002.4
20260505111857 71 190 4.3 10.4 0.00 0.00 0.00 82 1002.4
20260505111758 71 182 4.3 12.2 0.00 0.00 0.00 82 1002.4
20260505111657 71 183 4.3 12.2 0.00 0.00 0.00 82 1002.4
20260505111557 71 148 4.3 12.2 0.00 0.00 0.00 82 1001.2
20260505111457 70 196 4.3 12.2 0.00 0.00 0.00 82 1002.3
20260505111357 71 202 4.3 12.2 0.00 0.00 0.00 82 1002.3
20260505111257 71 236 4.3 12.2 0.00 0.00 0.00 82 1002.2
20260505111057 71 185 7.0 12.2 0.00 0.00 0.00 82 1002.2
20260505110757 71 185 4.3 12.2 0.00 0.00 0.00 82 1002.3
20260505110658 71 202 4.3 12.2 0.00 0.00 0.00 82 1002.4
20260505110557 71 196 4.3 12.2 0.00 0.00 0.00 82 1002.3
20260505110458 71 195 4.3 12.2 0.00 0.00 0.00 82 1002.3
20260505110358 71 174 5.2 12.2 0.00 0.00 0.00 82 1002.2
20260505110257 71 194 5.2 12.2 0.00 0.00 0.00 82 1002.2
20260505110157 71 184 6.1 13.0 0.00 0.00 0.00 82 1002.3
20260505102157 71 192 4.3 12.2 0.00 0.00 0.00 81 1002.7
20260505102057 71 201 5.2 12.2 0.00 0.00 0.00 81 1002.7
20260505101958 71 192 5.2 12.2 0.00 0.00 0.00 81 1002.6
20260505101856 71 201 6.1 12.2 0.00 0.00 0.00 81 1002.7
20260505101757 71 218 6.1 12.2 0.00 0.00 0.00 81 1002.6
20260505101700 71 177 5.2 12.2 0.00 0.00 0.00 81 1002.7
20260505101559 71 217 5.2 12.2 0.00 0.00 0.00 81 1001.6
20260505101557 71 217 6.1 12.2 0.00 0.00 0.00 81 1002.7
20260505101457 71 190 6.1 12.2 0.00 0.00 0.00 81 1002.6
20260505101357 71 195 6.1 12.2 0.00 0.00 0.00 81 1002.6
20260505101057 71 233 6.1 12.2 0.00 0.00 0.00 81 1002.5
20260505100957 71 200 7.0 12.2 0.00 0.00 0.00 81 1002.7
20260505100757 71 200 6.1 14.8 0.00 0.00 0.00 81 1002.7
20260505100657 71 184 5.2 14.8 0.00 0.00 0.00 81 1002.6
20260505100557 71 213 5.2 14.8 0.00 0.00 0.00 81 1002.5
20260505100458 71 199 7.0 14.8 0.00 0.00 0.00 82 1002.5
20260505100357 71 196 7.0 14.8 0.00 0.00 0.00 82 1002.5
20260505100257 71 213 7.0 14.8 0.00 0.00 0.00 82 1002.6
20260505100136 71 201 7.0 14.8 0.00 0.00 0.00 82 1001.4
20260505100057 71 201 7.8 14.8 0.00 0.00 0.00 82 1002.5
20260505095958 71 163 6.1 14.8 0.00 0.00 0.00 82 1002.3
20260505095858 71 202 6.1 12.2 0.00 0.00 0.00 82 1002.4
20260505095757 71 181 6.1 12.2 0.00 0.00 0.00 82 1002.4
20260505095658 71 213 6.1 12.2 0.00 0.00 0.00 82 1002.5
20260505095457 71 210 5.2 12.2 0.00 0.00 0.00 82 1002.5
20260505095258 71 225 6.1 12.2 0.00 0.00 0.00 82 1002.4
20260505095058 71 200 7.8 12.2 0.00 0.00 0.00 82 1002.4
20260505094957 71 225 7.0 12.2 0.00 0.00 0.00 82 1002.4
20260505094857 70 182 6.1 12.2 0.00 0.00 0.00 82 1002.4
20260505094657 71 167 6.1 12.2 0.00 0.00 0.00 82 1002.4
20260505094559 71 175 6.1 12.2 0.00 0.00 0.00 82 1002.3
20260505094557 71 175 6.1 12.2 0.00 0.00 0.00 82 1001.2
20260505094457 71 177 6.1 12.2 0.00 0.00 0.00 81 1002.4
20260505094358 71 176 6.1 12.2 0.00 0.00 0.00 81 1002.4
20260505094259 71 154 7.0 12.2 0.00 0.00 0.00 81 1002.4
20260505093958 71 195 6.1 14.8 0.00 0.00 0.00 81 1002.4
20260505093859 71 227 6.1 14.8 0.00 0.00 0.00 81 1002.5
20260505093758 71 194 7.0 15.6 0.00 0.00 0.00 81 1002.6
20260505093658 71 193 7.8 15.6 0.00 0.00 0.00 81 1002.6
20260505093558 71 191 7.0 15.6 0.00 0.00 0.00 81 1002.5
20260505093458 71 198 7.8 15.6 0.00 0.00 0.00 81 1002.5
20260505093357 71 188 7.8 15.6 0.00 0.00 0.00 81 1002.5
20260505093257 71 173 7.8 15.6 0.00 0.00 0.00 81 1002.6
20260505093158 71 191 7.0 15.6 0.00 0.00 0.00 81 1002.6
20260505093059 71 180 8.7 15.6 0.00 0.00 0.00 81 1002.6
20260505093057 71 180 7.8 15.6 0.00 0.00 0.00 81 1001.5
20260505092958 71 186 7.8 15.6 0.00 0.00 0.00 81 1002.5
20260505092857 71 187 8.7 14.8 0.00 0.00 0.00 81 1002.7
20260505092756 71 205 7.8 14.8 0.00 0.00 0.00 81 1002.6
20260505092657 71 229 7.8 14.8 0.00 0.00 0.00 81 1002.7
20260505092557 71 196 7.0 14.8 0.00 0.00 0.00 81 1002.7
20260505092457 71 205 7.0 14.8 0.00 0.00 0.00 81 1002.8
20260505092257 71 197 5.2 14.8 0.00 0.00 0.00 81 1002.7
20260505092158 71 251 6.1 14.8 0.00 0.00 0.00 81 1002.6
20260505092058 71 200 6.1 14.8 0.00 0.00 0.00 81 1002.7
20260505091957 71 187 6.1 14.8 0.00 0.00 0.00 81 1002.6
20260505091858 71 207 5.2 13.0 0.00 0.00 0.00 81 1002.7
20260505091758 71 177 6.1 13.0 0.00 0.00 0.00 81 1002.6
20260505091657 71 192 6.1 13.0 0.00 0.00 0.00 81 1002.6
20260505091617 71 202 6.1 13.9 0.00 0.00 0.00 81 1001.6
20260505091458 71 162 7.0 13.9 0.00 0.00 0.00 81 1002.6
20260505091357 71 186 7.0 13.9 0.00 0.00 0.00 81 1002.7
20260505091257 71 206 5.2 13.9 0.00 0.00 0.00 81 1002.8
20260505091157 71 167 4.3 13.9 0.00 0.00 0.00 81 1002.7
20260505091058 71 207 5.2 13.9 0.00 0.00 0.00 81 1002.8
20260505090957 71 186 6.1 13.9 0.00 0.00 0.00 81 1002.7
20260505090458 71 147 7.0 12.2 0.00 0.00 0.00 81 1002.8
20260505090257 71 209 6.1 12.2 0.00 0.00 0.00 81 1002.8
20260505090158 71 223 6.1 10.4 0.00 0.00 0.00 81 1002.9
20260505090058 71 252 5.2 12.2 0.00 0.00 0.00 81 1002.8
20260505085956 71 199 5.2 14.8 0.00 0.00 0.00 81 1002.8
20260505085857 71 238 4.3 14.8 0.00 0.00 0.00 81 1002.8
20260505085656 71 180 4.3 14.8 0.00 0.00 0.00 80 1002.8
20260505085556 71 189 5.2 14.8 0.00 0.00 0.00 80 1002.8
20260505085456 71 192 6.1 14.8 0.00 0.00 0.00 80 1002.8
20260505085356 71 186 6.1 14.8 0.00 0.00 0.00 80 1002.8
20260505085256 71 190 7.0 14.8 0.00 0.00 0.00 80 1002.7
20260505085156 71 176 6.1 14.8 0.00 0.00 0.00 80 1002.8
20260505084956 71 179 6.1 15.6 0.00 0.00 0.00 80 1002.7
20260505084856 71 222 6.1 15.6 0.00 0.00 0.00 80 1002.6
20260505084757 71 181 6.1 15.6 0.00 0.00 0.00 80 1002.6
20260505084557 71 223 6.1 15.6 0.00 0.00 0.00 80 1001.6
20260505084456 71 171 5.2 15.6 0.00 0.00 0.00 80 1002.7
20260505084357 71 202 6.1 15.6 0.00 0.00 0.00 80 1002.6
20260505084156 71 193 7.0 15.6 0.00 0.00 0.00 80 1002.7
20260505083956 71 192 4.3 13.9 0.00 0.00 0.00 80 1002.8
20260505083857 71 196 4.3 13.9 0.00 0.00 0.00 80 1002.7
20260505083656 71 218 5.2 13.9 0.00 0.00 0.00 80 1002.8
20260505083556 71 190 6.1 13.9 0.00 0.00 0.00 80 1002.7
20260505083456 71 195 6.1 10.4 0.00 0.00 0.00 80 1002.7
20260505083356 71 186 5.2 10.4 0.00 0.00 0.00 80 1002.7
20260505083257 71 182 4.3 9.6 0.00 0.00 0.00 80 1002.8
20260505083157 71 196 4.3 9.6 0.00 0.00 0.00 80 1002.7
20260505083056 71 202 4.3 9.6 0.00 0.00 0.00 80 1001.6
20260505082958 71 200 4.3 9.6 0.00 0.00 0.00 80 1002.7
20260505082856 71 219 4.3 9.6 0.00 0.00 0.00 80 1002.7
20260505082756 71 161 5.2 9.6 0.00 0.00 0.00 80 1002.7
20260505082657 71 198 5.2 9.6 0.00 0.00 0.00 80 1002.7
20260505082558 71 197 5.2 9.6 0.00 0.00 0.00 80 1002.8
20260505082456 71 190 4.3 9.6 0.00 0.00 0.00 80 1002.8
20260505082357 71 205 4.3 12.2 0.00 0.00 0.00 80 1002.8
20260505082256 71 179 3.5 12.2 0.00 0.00 0.00 80 1002.8
20260505082057 71 202 4.3 12.2 0.00 0.00 0.00 79 1002.8
20260505081955 71 194 4.3 12.2 0.00 0.00 0.00 79 1002.8
20260505081857 71 207 5.2 12.2 0.00 0.00 0.00 79 1002.8
20260505081758 71 242 7.0 12.2 0.00 0.00 0.00 79 1002.8
20260505081656 71 194 7.0 12.2 0.00 0.00 0.00 79 1002.9
20260505081556 71 194 7.0 12.2 0.00 0.00 0.00 79 1002.9
20260505081457 71 150 6.1 12.2 0.00 0.00 0.00 79 1002.8
20260505081357 71 212 5.2 12.2 0.00 0.00 0.00 79 1002.9
20260505081156 71 192 3.5 9.6 0.00 0.00 0.00 79 1002.9
20260505081057 71 187 5.2 12.2 0.00 0.00 0.00 79 1002.9
20260505080956 71 197 5.2 12.2 0.00 0.00 0.00 79 1003.0
20260505080757 71 169 5.2 12.2 0.00 0.00 0.00 79 1003.0
20260505080657 71 185 5.2 12.2 0.00 0.00 0.00 79 1003.0
20260505080556 71 194 5.2 12.2 0.00 0.00 0.00 79 1003.1
20260505080356 71 199 5.2 12.2 0.00 0.00 0.00 79 1003.0
20260505080257 71 186 5.2 12.2 0.00 0.00 0.00 79 1003.0
20260505080158 71 192 6.1 9.6 0.00 0.00 0.00 79 1003.1
20260505080056 71 208 6.1 10.4 0.00 0.00 0.00 79 1002.0
20260505075957 71 197 5.2 10.4 0.00 0.00 0.00 78 1003.0
20260505075856 71 163 5.2 10.4 0.00 0.00 0.00 78 1003.1
20260505075757 71 192 5.2 10.4 0.00 0.00 0.00 78 1003.1
20260505075656 71 165 5.2 10.4 0.00 0.00 0.00 78 1003.1
20260505075556 71 181 4.3 10.4 0.00 0.00 0.00 78 1003.1
20260505075456 71 187 5.2 10.4 0.00 0.00 0.00 78 1003.1
20260505075359 71 235 5.2 10.4 0.00 0.00 0.00 78 1003.1
20260505075256 71 190 4.3 10.4 0.00 0.00 0.00 78 1003.1
20260505075158 71 194 4.3 10.4 0.00 0.00 0.00 78 1003.1
20260505075057 71 210 4.3 10.4 0.00 0.00 0.00 78 1003.1
20260505074956 71 187 5.2 10.4 0.00 0.00 0.00 78 1003.2
20260505074857 71 184 6.1 10.4 0.00 0.00 0.00 78 1003.1
20260505074757 71 184 6.1 10.4 0.00 0.00 0.00 78 1003.2
20260505074658 71 190 5.2 12.2 0.00 0.00 0.00 78 1003.2
20260505074556 71 223 4.3 12.2 0.00 0.00 0.00 78 1002.2
20260505074456 71 189 4.3 12.2 0.00 0.00 0.00 78 1003.3
20260505074256 71 205 4.3 12.2 0.00 0.00 0.00 78 1003.4
20260505074056 71 190 5.2 12.2 0.00 0.00 0.00 78 1003.4
20260505073956 71 196 5.2 12.2 0.00 0.00 0.00 78 1003.4
20260505073856 71 192 5.2 9.6 0.00 0.00 0.00 78 1003.4
20260505073757 71 186 5.2 9.6 0.00 0.00 0.00 78 1003.3
20260505073656 71 200 5.2 9.6 0.00 0.00 0.00 78 1003.4
20260505073456 71 172 5.2 9.6 0.00 0.00 0.00 78 1003.4
20260505073356 71 193 4.3 8.7 0.00 0.00 0.00 78 1003.5
20260505073158 71 186 4.3 8.7 0.00 0.00 0.00 78 1003.4
20260505073101 71 184 3.5 8.7 0.00 0.00 0.00 77 1002.4
20260505073056 71 184 4.3 8.7 0.00 0.00 0.00 77 1003.4
20260505072957 71 198 4.3 7.8 0.00 0.00 0.00 77 1003.5
20260505072855 71 172 4.3 9.6 0.00 0.00 0.00 77 1003.6
20260505072656 71 182 4.3 9.6 0.00 0.00 0.00 77 1003.5
20260505072557 71 173 4.3 9.6 0.00 0.00 0.00 77 1003.5
20260505072457 71 199 3.5 9.6 0.00 0.00 0.00 77 1003.6
20260505072356 71 178 3.5 9.6 0.00 0.00 0.00 77 1003.6
20260505072258 71 204 4.3 9.6 0.00 0.00 0.00 77 1003.6
20260505072156 71 204 4.3 9.6 0.00 0.00 0.00 77 1003.6
20260505072057 71 209 4.3 13.0 0.00 0.00 0.00 77 1003.7
20260505071957 71 179 5.2 13.0 0.00 0.00 0.00 77 1003.7
20260505071856 71 169 5.2 13.0 0.00 0.00 0.00 77 1003.7
20260505071757 71 212 6.1 13.0 0.00 0.00 0.00 77 1003.8
20260505071657 71 197 5.2 13.0 0.00 0.00 0.00 77 1003.7
20260505071557 71 188 5.2 13.0 0.00 0.00 0.00 77 1003.7
20260505071357 71 216 5.2 9.6 0.00 0.00 0.00 77 1003.8
20260505071256 71 202 5.2 9.6 0.00 0.00 0.00 77 1003.8
20260505071057 71 215 5.2 9.6 0.00 0.00 0.00 77 1003.7
20260505070956 71 192 5.2 12.2 0.00 0.00 0.00 77 1003.8
20260505070857 71 164 5.2 12.2 0.00 0.00 0.00 77 1003.8
20260505070757 71 184 6.1 12.2 0.00 0.00 0.00 77 1003.8
20260505070656 71 182 5.2 12.2 0.00 0.00 0.00 77 1003.8
20260505070556 71 182 4.3 12.2 0.00 0.00 0.00 77 1003.8
20260505070456 71 198 5.2 12.2 0.00 0.00 0.00 77 1003.8
20260505070357 71 176 4.3 12.2 0.00 0.00 0.00 77 1003.8
20260505070256 71 199 5.2 12.2 0.00 0.00 0.00 77 1003.8
20260505070156 71 187 4.3 12.2 0.00 0.00 0.00 77 1003.8
20260505070058 71 194 4.3 12.2 0.00 0.00 0.00 77 1002.8
20260505070056 71 194 4.3 12.2 0.00 0.00 0.00 77 1003.9
20260505065957 71 172 5.2 12.2 0.00 0.00 0.00 77 1003.8
20260505065856 71 188 6.1 12.2 0.00 0.00 0.00 77 1003.9
20260505065757 71 177 6.1 12.2 0.00 0.00 0.00 77 1003.8
20260505065656 71 186 7.0 12.2 0.00 0.00 0.00 77 1003.9
20260505065555 71 175 7.0 12.2 0.00 0.00 0.00 77 1003.8
20260505065457 71 186 5.2 12.2 0.00 0.00 0.00 77 1003.8
20260505065356 71 192 4.3 12.2 0.00 0.00 0.00 77 1003.8
20260505065258 71 180 4.3 12.2 0.00 0.00 0.00 77 1003.9
20260505065057 71 202 5.2 11.3 0.00 0.00 0.00 77 1003.9
20260505064956 71 198 5.2 11.3 0.00 0.00 0.00 76 1003.9
20260505064857 71 168 6.1 11.3 0.00 0.00 0.00 76 1003.9
20260505064756 71 150 6.1 11.3 0.00 0.00 0.00 76 1004.0
20260505064656 71 162 6.1 11.3 0.00 0.00 0.00 76 1004.0
20260505064607 71 196 6.1 11.3 0.00 0.00 0.00 76 1003.1
20260505064455 71 194 7.0 11.3 0.00 0.00 0.00 76 1004.0
20260505064357 71 181 7.0 11.3 0.00 0.00 0.00 76 1004.0
20260505064156 71 189 6.1 11.3 0.00 0.00 0.00 76 1004.0
20260505064057 71 167 5.2 11.3 0.00 0.00 0.00 76 1004.1
20260505063957 71 219 7.0 12.2 0.00 0.00 0.00 76 1004.0
20260505063856 71 173 7.8 12.2 0.00 0.00 0.00 76 1004.2
20260505063756 71 182 7.0 11.3 0.00 0.00 0.00 76 1004.2
20260505063657 71 196 7.0 11.3 0.00 0.00 0.00 76 1004.1
20260505063556 71 176 7.0 11.3 0.00 0.00 0.00 76 1004.2
20260505063457 71 213 7.0 11.3 0.00 0.00 0.00 76 1004.2
20260505063356 71 192 7.0 10.4 0.00 0.00 0.00 76 1004.2
20260505063157 71 180 6.1 14.8 0.00 0.00 0.00 76 1004.2
20260505063056 71 195 5.2 14.8 0.00 0.00 0.00 75 1003.2
20260505062957 72 175 7.0 14.8 0.00 0.00 0.00 75 1004.1
20260505062758 72 202 7.0 14.8 0.00 0.00 0.00 75 1004.1
20260505062657 72 172 7.0 14.8 0.00 0.00 0.00 75 1004.1
20260505062556 72 192 7.8 14.8 0.00 0.00 0.00 75 1004.2
20260505062457 72 176 7.0 14.8 0.00 0.00 0.00 75 1004.1
20260505062356 72 163 7.0 13.9 0.00 0.00 0.00 75 1004.2
20260505062256 72 192 7.0 13.9 0.00 0.00 0.00 75 1004.2
20260505062156 72 191 7.8 13.9 0.00 0.00 0.00 75 1004.1
20260505062056 72 194 7.0 13.9 0.00 0.00 0.00 75 1004.2
20260505061956 72 172 6.1 13.9 0.00 0.00 0.00 75 1004.1
20260505061857 72 229 6.1 13.9 0.00 0.00 0.00 75 1004.3
20260505061757 72 173 7.0 13.9 0.00 0.00 0.00 75 1004.1
20260505061556 72 194 8.7 14.8 0.00 0.00 0.00 75 1004.2
20260505061457 72 174 7.0 14.8 0.00 0.00 0.00 75 1004.2
20260505061356 72 175 6.1 14.8 0.00 0.00 0.00 75 1004.2
20260505061256 72 175 5.2 14.8 0.00 0.00 0.00 74 1004.2
20260505061156 72 191 5.2 14.8 0.00 0.00 0.00 74 1004.2
20260505060858 72 192 7.8 14.8 0.00 0.00 0.00 74 1004.2
20260505060756 72 175 7.8 14.8 0.00 0.00 0.00 74 1004.1
20260505060656 72 178 7.0 15.6 0.00 0.00 0.00 74 1004.2
20260505060556 72 165 6.1 15.6 0.00 0.00 0.00 74 1004.2
20260505060456 72 193 5.2 15.6 0.00 0.00 0.00 74 1004.2
20260505060357 72 191 6.1 15.6 0.00 0.00 0.00 74 1004.1
20260505060257 72 180 7.8 15.6 0.00 0.00 0.00 74 1004.2
20260505060156 72 174 7.8 15.6 0.00 0.00 0.00 74 1004.2
20260505060056 72 180 7.8 15.6 0.00 0.00 0.00 74 1004.2
20260505060001 72 214 7.0 15.6 0.00 0.00 0.00 74 1003.2
20260505055902 72 198 7.8 14.8 0.00 0.00 0.00 74 1004.1
20260505055801 72 168 7.0 13.0 0.00 0.00 0.00 74 1004.1
20260505055701 72 178 7.0 13.0 0.00 0.00 0.00 74 1004.2
20260505055601 72 194 6.1 13.0 0.00 0.00 0.00 74 1004.1
20260505055502 72 193 7.0 13.0 0.00 0.00 0.00 74 1004.3
20260505055401 72 186 7.0 12.2 0.00 0.00 0.00 74 1004.2
20260505055300 72 171 7.8 12.2 0.00 0.00 0.00 74 1004.3
20260505055202 72 185 7.0 12.2 0.00 0.00 0.00 74 1004.2
20260505055102 72 188 7.0 12.2 0.00 0.00 0.00 74 1004.1
20260505055002 72 192 7.0 12.2 0.00 0.00 0.00 74 1004.2
20260505054902 72 182 7.0 12.2 0.00 0.00 0.00 74 1004.0
20260505054802 72 192 7.8 12.2 0.00 0.00 0.00 74 1004.1
20260505054621 72 161 6.1 11.3 0.00 0.00 0.00 74 1003.1
20260505054604 72 161 7.0 11.3 0.00 0.00 0.00 74 1004.1
20260505054502 72 212 6.1 11.3 0.00 0.00 0.00 74 1004.1
20260505054500 72 212 6.1 11.3 0.00 0.00 0.00 74 1003.1
20260505054401 72 175 6.1 11.3 0.00 0.00 0.00 74 1004.2
20260505054301 72 187 6.1 11.3 0.00 0.00 0.00 74 1004.2
20260505054202 72 183 7.0 11.3 0.00 0.00 0.00 74 1004.1
20260505053802 72 175 6.1 12.2 0.00 0.00 0.00 73 1004.1
20260505053701 72 184 6.1 12.2 0.00 0.00 0.00 73 1004.2
20260505053601 72 183 7.0 12.2 0.00 0.00 0.00 73 1004.2
20260505053502 72 161 7.0 13.9 0.00 0.00 0.00 73 1004.1
20260505053402 72 188 7.0 13.9 0.00 0.00 0.00 73 1004.2
20260505053302 72 175 7.0 13.9 0.00 0.00 0.00 73 1004.2
20260505053202 72 202 7.8 13.9 0.00 0.00 0.00 73 1004.3
20260505053102 73 180 7.8 13.9 0.00 0.00 0.00 73 1004.2
20260505053001 73 178 7.0 14.8 0.00 0.00 0.00 73 1004.2
20260505052901 73 171 7.8 14.8 0.00 0.00 0.00 73 1004.3
20260505052701 73 184 7.8 14.8 0.00 0.00 0.00 73 1004.3
20260505052501 73 200 8.7 14.8 0.00 0.00 0.00 73 1004.4
20260505052402 73 160 8.7 14.8 0.00 0.00 0.00 73 1004.2
20260505052304 73 175 7.8 16.5 0.00 0.00 0.00 72 1004.3
20260505052202 73 178 7.8 16.5 0.00 0.00 0.00 72 1004.3
20260505052102 73 208 7.0 16.5 0.00 0.00 0.00 72 1004.3
20260505052001 73 186 7.8 16.5 0.00 0.00 0.00 72 1004.3
20260505051902 73 190 8.7 16.5 0.00 0.00 0.00 72 1004.3
20260505051801 73 182 8.7 16.5 0.00 0.00 0.00 72 1004.5
20260505051701 73 202 9.6 16.5 0.00 0.00 0.00 72 1004.5
20260505051601 73 188 8.7 16.5 0.00 0.00 0.00 72 1003.4
20260505051501 73 154 9.6 16.5 0.00 0.00 0.00 72 1004.5
20260505051403 73 191 8.7 16.5 0.00 0.00 0.00 72 1004.4
20260505051302 73 210 8.7 13.9 0.00 0.00 0.00 72 1004.5
20260505051101 73 182 7.8 15.6 0.00 0.00 0.00 72 1004.5
20260505050901 73 191 8.7 15.6 0.00 0.00 0.00 72 1004.5
20260505050802 73 182 9.6 15.6 0.00 0.00 0.00 72 1004.5
20260505050701 73 214 8.7 15.6 0.00 0.00 0.00 72 1004.6
20260505050602 73 192 7.8 15.6 0.00 0.00 0.00 72 1004.5
20260505050502 73 169 7.8 17.4 0.00 0.00 0.00 72 1004.8
20260505050401 73 169 9.6 17.4 0.00 0.00 0.00 72 1004.6
20260505050302 73 178 10.4 17.4 0.00 0.00 0.00 72 1004.7
20260505050203 73 178 9.6 17.4 0.00 0.00 0.00 72 1004.6
20260505041702 73 194 7.0 12.2 0.00 0.00 0.00 72 1005.0
20260505041601 73 176 7.0 12.2 0.00 0.00 0.00 72 1004.8
20260505041504 73 188 6.1 12.2 0.00 0.00 0.00 72 1003.8
20260505041501 73 188 7.0 12.2 0.00 0.00 0.00 72 1004.7
20260505041302 73 194 6.1 12.2 0.00 0.00 0.00 72 1004.8
20260505041201 73 199 7.0 12.2 0.00 0.00 0.00 72 1004.8
20260505041101 73 169 7.8 12.2 0.00 0.00 0.00 72 1004.7
20260505041002 73 196 8.7 12.2 0.00 0.00 0.00 72 1004.8
20260505040901 73 204 7.8 12.2 0.00 0.00 0.00 72 1004.8
20260505040801 72 221 7.8 12.2 0.00 0.00 0.00 72 1004.9
20260505040702 72 173 7.8 12.2 0.00 0.00 0.00 72 1004.7
20260505040600 72 190 7.8 12.2 0.00 0.00 0.00 72 1005.0
20260505040501 72 175 7.8 13.9 0.00 0.00 0.00 72 1004.9
20260505040402 72 175 7.0 13.9 0.00 0.00 0.00 72 1004.9
20260505040310 72 192 7.0 13.9 0.00 0.00 0.00 72 1004.9
20260505040201 72 164 6.1 13.9 0.00 0.00 0.00 72 1005.0
20260505040001 72 171 6.1 13.9 0.00 0.00 0.00 72 1003.9
20260505035902 72 175 7.0 13.9 0.00 0.00 0.00 72 1004.9
20260505035801 72 190 7.0 13.9 0.00 0.00 0.00 72 1004.9
20260505035701 72 178 7.0 13.9 0.00 0.00 0.00 72 1004.9
20260505035602 72 157 7.0 13.0 0.00 0.00 0.00 72 1004.8
20260505035501 72 181 7.0 15.6 0.00 0.00 0.00 72 1004.7
20260505035402 72 183 7.8 15.6 0.00 0.00 0.00 72 1004.7
20260505035301 72 171 7.0 15.6 0.00 0.00 0.00 72 1004.7
20260505035202 72 175 6.1 15.6 0.00 0.00 0.00 72 1004.7
20260505035101 72 159 6.1 15.6 0.00 0.00 0.00 72 1004.8
20260505035002 72 137 6.1 15.6 0.00 0.00 0.00 72 1004.7
20260505034901 73 161 7.0 15.6 0.00 0.00 0.00 72 1004.7
20260505034801 73 162 7.0 15.6 0.00 0.00 0.00 72 1004.8
20260505034702 73 160 7.8 15.6 0.00 0.00 0.00 72 1004.7
20260505034601 73 166 8.7 15.6 0.00 0.00 0.00 72 1004.7
20260505034501 73 189 7.0 15.6 0.00 0.00 0.00 72 1003.9
20260505034401 72 172 7.0 13.0 0.00 0.00 0.00 72 1004.9
20260505034302 72 169 7.0 13.0 0.00 0.00 0.00 72 1004.9
20260505034202 72 192 8.7 13.0 0.00 0.00 0.00 72 1004.7
20260505034102 72 185 7.8 13.0 0.00 0.00 0.00 72 1004.7
20260505034002 72 183 7.0 14.8 0.00 0.00 0.00 72 1004.9
20260505033901 72 158 6.1 10.4 0.00 0.00 0.00 72 1004.8
20260505033801 72 207 7.0 9.6 0.00 0.00 0.00 72 1004.9
20260505033702 72 155 7.0 12.2 0.00 0.00 0.00 72 1004.8
20260505033601 72 186 7.0 14.8 0.00 0.00 0.00 72 1004.9
20260505033501 73 174 7.0 14.8 0.00 0.00 0.00 71 1004.8
20260505033402 73 146 7.0 14.8 0.00 0.00 0.00 71 1004.8
20260505033202 73 169 7.0 14.8 0.00 0.00 0.00 71 1004.8
20260505033101 73 182 7.8 14.8 0.00 0.00 0.00 71 1004.9
20260505033002 73 171 8.7 14.8 0.00 0.00 0.00 71 1004.9
20260505032902 73 181 7.8 14.8 0.00 0.00 0.00 71 1004.9
20260505032801 73 159 7.8 14.8 0.00 0.00 0.00 71 1005.1
20260505032601 73 187 7.0 11.3 0.00 0.00 0.00 71 1005.0
20260505032401 73 194 6.1 12.2 0.00 0.00 0.00 71 1005.0
20260505032301 73 171 7.0 12.2 0.00 0.00 0.00 71 1005.0
20260505032201 73 192 7.0 12.2 0.00 0.00 0.00 71 1005.1
20260505032101 73 194 6.1 12.2 0.00 0.00 0.00 71 1005.0
20260505032002 73 189 6.1 12.2 0.00 0.00 0.00 71 1005.0
20260505031901 73 154 6.1 12.2 0.00 0.00 0.00 71 1005.1
20260505031801 73 180 6.1 13.0 0.00 0.00 0.00 71 1005.1
20260505031701 73 182 7.0 13.0 0.00 0.00 0.00 71 1005.0
20260505031602 73 167 7.0 13.0 0.00 0.00 0.00 71 1005.0
20260505031506 73 165 7.0 13.0 0.00 0.00 0.00 71 1004.1
20260505031502 73 165 7.8 13.0 0.00 0.00 0.00 71 1005.0
20260505031401 73 192 7.0 13.0 0.00 0.00 0.00 71 1005.1
20260505031302 73 223 7.0 13.0 0.00 0.00 0.00 71 1005.0
20260505031201 73 173 7.8 13.0 0.00 0.00 0.00 71 1005.2
20260505031002 73 182 7.8 14.8 0.00 0.00 0.00 71 1005.1
20260505030902 73 179 7.8 14.8 0.00 0.00 0.00 71 1005.0
20260505030801 73 178 7.8 14.8 0.00 0.00 0.00 70 1005.0
20260505030701 73 173 7.8 14.8 0.00 0.00 0.00 70 1005.0
20260505030601 73 160 7.0 14.8 0.00 0.00 0.00 70 1004.9
20260505030501 73 186 7.0 14.8 0.00 0.00 0.00 70 1004.9
20260505030401 73 157 7.8 14.8 0.00 0.00 0.00 71 1005.0
20260505030302 73 182 7.8 14.8 0.00 0.00 0.00 71 1005.0
20260505030201 73 192 7.0 12.2 0.00 0.00 0.00 71 1004.9
20260505030003 73 188 7.0 12.2 0.00 0.00 0.00 70 1004.9
20260505025902 73 177 6.1 11.3 0.00 0.00 0.00 70 1004.9
20260505025801 73 178 6.1 10.4 0.00 0.00 0.00 70 1004.9
20260505025701 73 163 6.1 10.4 0.00 0.00 0.00 70 1004.9
20260505025602 73 185 7.0 10.4 0.00 0.00 0.00 70 1004.9
20260505025501 73 185 7.8 11.3 0.00 0.00 0.00 70 1005.0
20260505025304 73 202 7.0 11.3 0.00 0.00 0.00 70 1005.0
20260505025201 73 159 6.1 11.3 0.00 0.00 0.00 70 1005.0
20260505025102 73 167 6.1 11.3 0.00 0.00 0.00 70 1005.0
20260505024902 73 181 6.1 11.3 0.00 0.00 0.00 70 1004.9
20260505024802 73 163 7.0 11.3 0.00 0.00 0.00 70 1005.0
20260505024702 73 171 6.1 12.2 0.00 0.00 0.00 70 1004.8
20260505024602 73 181 6.1 10.4 0.00 0.00 0.00 70 1004.8
20260505024503 73 183 6.1 15.6 0.00 0.00 0.00 70 1003.9
20260505024402 73 207 6.1 15.6 0.00 0.00 0.00 70 1004.8
20260505024301 73 182 6.1 15.6 0.00 0.00 0.00 70 1004.9
20260505024101 73 203 7.8 14.8 0.00 0.00 0.00 70 1004.8
20260505024001 73 169 6.1 14.8 0.00 0.00 0.00 70 1004.8
20260505023901 73 190 6.1 14.8 0.00 0.00 0.00 70 1004.8
20260505023802 73 171 7.0 14.8 0.00 0.00 0.00 70 1004.8
20260505023601 73 181 7.8 14.8 0.00 0.00 0.00 70 1004.8
20260505023501 73 177 7.8 14.8 0.00 0.00 0.00 70 1004.9
20260505023402 73 159 7.8 14.8 0.00 0.00 0.00 70 1004.9
20260505023301 73 215 7.0 14.8 0.00 0.00 0.00 70 1005.0
20260505023202 73 169 5.2 14.8 0.00 0.00 0.00 70 1005.0
20260505023101 73 190 5.2 14.8 0.00 0.00 0.00 70 1004.8
20260505023002 73 192 6.1 14.8 0.00 0.00 0.00 70 1004.9
20260505022901 73 159 6.1 14.8 0.00 0.00 0.00 70 1004.8
20260505022801 73 216 7.0 14.8 0.00 0.00 0.00 70 1004.9
20260505022702 73 175 6.1 12.2 0.00 0.00 0.00 69 1004.9
20260505022601 73 194 6.1 12.2 0.00 0.00 0.00 69 1005.0
20260505022502 73 185 7.0 12.2 0.00 0.00 0.00 69 1004.9
20260505022301 73 178 6.1 11.3 0.00 0.00 0.00 69 1004.8
20260505022202 73 146 5.2 10.4 0.00 0.00 0.00 69 1004.9
20260505022101 73 188 4.3 12.2 0.00 0.00 0.00 69 1004.9
20260505022001 73 192 4.3 12.2 0.00 0.00 0.00 69 1004.9
20260505021901 73 201 5.2 12.2 0.00 0.00 0.00 69 1004.9
20260505021803 73 205 7.0 12.2 0.00 0.00 0.00 69 1004.9
20260505021602 73 178 7.8 12.2 0.00 0.00 0.00 69 1004.7
20260505021503 73 160 7.8 12.2 0.00 0.00 0.00 69 1003.8
20260505021501 73 160 8.7 12.2 0.00 0.00 0.00 69 1004.7
20260505021401 73 180 8.7 13.0 0.00 0.00 0.00 69 1004.6
20260505021302 73 156 7.0 13.0 0.00 0.00 0.00 69 1004.6
20260505021202 73 161 7.0 13.0 0.00 0.00 0.00 69 1004.6
20260505021101 73 155 7.0 13.0 0.00 0.00 0.00 69 1004.6
20260505021001 73 188 6.1 13.9 0.00 0.00 0.00 69 1004.6
20260505020902 73 182 5.2 13.9 0.00 0.00 0.00 69 1004.6
20260505020702 73 165 5.2 13.9 0.00 0.00 0.00 69 1004.6
20260505020601 74 157 5.2 13.9 0.00 0.00 0.00 68 1004.6
20260505020501 74 168 5.2 13.9 0.00 0.00 0.00 68 1004.6
20260505020401 74 190 7.0 13.9 0.00 0.00 0.00 68 1004.6
20260505020302 74 193 7.8 13.9 0.00 0.00 0.00 68 1004.6
20260505020201 74 194 7.0 13.9 0.00 0.00 0.00 68 1004.7
20260505020101 74 134 6.1 13.0 0.00 0.00 0.00 68 1004.7
20260505020002 74 175 6.1 13.9 0.00 0.00 0.00 68 1003.9
20260505015800 74 213 6.1 12.2 0.00 0.00 0.00 68 1004.7
20260505015701 74 186 5.2 12.2 0.00 0.00 0.00 68 1004.6
20260505015600 74 217 4.3 12.2 0.00 0.00 0.00 68 1004.6
20260505015401 74 183 7.0 14.8 0.00 0.00 0.00 67 1004.6
20260505015300 74 201 7.8 14.8 0.00 0.00 0.00 67 1004.7
20260505015200 74 181 7.8 14.8 0.00 0.00 0.00 67 1004.6
20260505015100 74 200 7.0 14.8 0.00 0.00 0.00 67 1004.5
20260505014901 74 199 7.0 14.8 0.00 0.00 0.00 67 1004.5
20260505014800 74 195 7.8 14.8 0.00 0.00 0.00 67 1004.5
20260505014700 74 207 7.8 14.8 0.00 0.00 0.00 67 1004.6
20260505014601 74 189 7.8 13.9 0.00 0.00 0.00 67 1004.5
20260505014500 74 190 8.7 13.9 0.00 0.00 0.00 67 1004.6
20260505014400 74 188 7.0 13.9 0.00 0.00 0.00 67 1004.5
20260505014301 74 178 7.0 13.9 0.00 0.00 0.00 67 1004.5
20260505014200 74 169 7.8 13.9 0.00 0.00 0.00 67 1004.5
20260505014101 74 198 7.8 14.8 0.00 0.00 0.00 67 1004.7
20260505014000 74 200 7.0 13.9 0.00 0.00 0.00 67 1004.6
20260505013700 74 184 7.0 14.8 0.00 0.00 0.00 67 1004.6
20260505013600 74 163 7.8 14.8 0.00 0.00 0.00 67 1004.4
20260505013500 74 167 7.8 14.8 0.00 0.00 0.00 67 1004.5
20260505013400 74 184 7.0 16.5 0.00 0.00 0.00 67 1004.5
20260505013301 74 152 7.0 16.5 0.00 0.00 0.00 66 1004.5
20260505013200 74 191 7.0 16.5 0.00 0.00 0.00 66 1004.5
20260505013101 74 159 6.1 16.5 0.00 0.00 0.00 66 1003.8
20260505013000 74 207 7.8 16.5 0.00 0.00 0.00 66 1004.6
20260505012900 74 209 7.8 16.5 0.00 0.00 0.00 66 1004.5
20260505012700 74 170 7.8 16.5 0.00 0.00 0.00 66 1004.7
20260505012600 74 179 7.0 16.5 0.00 0.00 0.00 66 1004.4
20260505012500 74 180 7.0 15.6 0.00 0.00 0.00 66 1004.4
20260505012300 74 191 8.7 15.6 0.00 0.00 0.00 66 1004.6
20260505012002 74 194 7.8 15.6 0.00 0.00 0.00 66 1004.4
20260505011900 74 198 8.7 15.6 0.00 0.00 0.00 66 1004.4
20260505011800 74 209 7.8 15.6 0.00 0.00 0.00 66 1004.5
20260505011700 74 187 7.8 15.6 0.00 0.00 0.00 66 1004.3
20260505011601 74 196 7.8 15.6 0.00 0.00 0.00 66 1003.5
20260505011501 74 174 7.8 15.6 0.00 0.00 0.00 66 1004.4
20260505011300 74 169 7.8 17.4 0.00 0.00 0.00 66 1004.4
20260505011201 74 188 7.8 13.9 0.00 0.00 0.00 66 1004.3
20260505011101 74 210 7.8 13.9 0.00 0.00 0.00 66 1004.3
20260505010902 74 184 6.1 13.9 0.00 0.00 0.00 66 1004.3
20260505010801 75 201 7.0 13.9 0.00 0.00 0.00 66 1004.3
20260505010701 75 190 7.0 13.9 0.00 0.00 0.00 65 1004.3
20260505010600 75 194 7.8 13.9 0.00 0.00 0.00 65 1004.5
20260505010500 75 194 7.0 13.0 0.00 0.00 0.00 65 1004.4
20260505010401 75 175 7.8 13.0 0.00 0.00 0.00 66 1004.4
20260505010301 75 206 7.8 13.0 0.00 0.00 0.00 65 1004.5
20260505010200 75 168 7.8 13.0 0.00 0.00 0.00 65 1004.5
20260505010113 75 171 7.0 13.0 0.00 0.00 0.00 65 1003.6
20260505010100 75 171 7.0 13.0 0.00 0.00 0.00 65 1004.5
20260505010004 75 184 7.0 13.0 0.00 0.00 0.00 65 1003.6
20260505010002 75 184 7.8 13.0 0.00 0.00 0.00 65 1004.5
20260505005901 75 175 7.8 13.0 0.00 0.00 0.00 65 1004.6
20260505005801 75 165 7.8 13.0 0.00 0.00 0.00 65 1004.6
20260505005702 75 194 7.8 13.0 0.00 0.00 0.00 65 1004.7
20260505005403 75 190 7.0 13.0 0.00 0.00 0.00 65 1004.7
20260505005303 75 200 7.0 13.0 0.00 0.00 0.00 65 1004.6
20260505005202 75 157 7.0 13.0 0.00 0.00 0.00 65 1004.5
20260505005101 75 192 6.1 13.0 0.00 0.00 0.00 65 1004.6
20260505005001 75 186 6.1 13.0 0.00 0.00 0.00 65 1004.6
20260505004901 75 196 7.0 13.0 0.00 0.00 0.00 65 1004.6
20260505004701 75 182 7.0 13.0 0.00 0.00 0.00 65 1004.6
20260505004602 75 182 7.0 12.2 0.00 0.00 0.00 65 1004.6
20260505004502 75 183 6.1 12.2 0.00 0.00 0.00 65 1003.6
20260505004301 75 179 6.1 13.9 0.00 0.00 0.00 64 1004.6
20260505004202 75 215 5.2 13.9 0.00 0.00 0.00 64 1004.6
20260505004101 75 204 6.1 13.9 0.00 0.00 0.00 64 1004.7
20260505003901 76 188 8.7 16.5 0.00 0.00 0.00 65 1004.8
20260505003802 76 187 7.8 16.5 0.00 0.00 0.00 64 1004.8
20260505003501 76 171 7.0 16.5 0.00 0.00 0.00 64 1004.8
20260505003402 76 175 7.0 16.5 0.00 0.00 0.00 64 1004.8
20260505003301 76 183 8.7 16.5 0.00 0.00 0.00 64 1004.9
20260505003202 76 136 8.7 16.5 0.00 0.00 0.00 63 1004.9
20260505003001 76 182 6.1 17.4 0.00 0.00 0.00 64 1003.9
20260505002903 76 208 6.1 17.4 0.00 0.00 0.00 64 1004.6
20260505002801 76 205 7.0 17.4 0.00 0.00 0.00 64 1004.7
20260505002702 76 192 7.0 17.4 0.00 0.00 0.00 64 1004.7
20260505002502 76 198 7.0 17.4 0.00 0.00 0.00 63 1004.8
20260505002401 76 205 8.7 17.4 0.00 0.00 0.00 63 1004.7
20260505002303 76 185 8.7 17.4 0.00 0.00 0.00 63 1004.7
20260505002201 76 202 8.7 15.6 0.00 0.00 0.00 64 1004.7
20260505002101 76 219 7.8 15.6 0.00 0.00 0.00 64 1004.9
20260505002002 76 191 7.8 15.6 0.00 0.00 0.00 64 1004.9
20260505001802 76 188 7.8 15.6 0.00 0.00 0.00 64 1004.7
20260505001703 76 164 7.8 15.6 0.00 0.00 0.00 64 1004.7
20260505001601 76 190 8.7 15.6 0.00 0.00 0.00 64 1004.8
20260505001501 76 166 8.7 15.6 0.00 0.00 0.00 64 1003.8
20260505001401 76 195 7.8 15.6 0.00 0.00 0.00 64 1004.8
20260505001302 76 179 7.0 15.6 0.00 0.00 0.00 64 1004.8
20260505001201 76 194 6.1 13.9 0.00 0.00 0.00 64 1004.9
20260505001101 76 175 6.1 13.9 0.00 0.00 0.00 64 1004.9
20260505001002 76 201 7.0 13.9 0.00 0.00 0.00 64 1004.9
20260505000902 77 178 7.0 13.9 0.00 0.00 0.00 63 1004.9
20260505000801 77 205 7.0 13.9 0.00 0.00 0.00 63 1004.8
20260505000701 77 178 6.1 13.9 0.00 0.00 0.00 63 1004.9
20260505000602 77 207 7.0 13.0 0.00 0.00 0.00 63 1004.9
20260505000501 77 207 7.8 13.0 0.00 0.00 0.00 63 1004.9
20260505000401 77 196 7.8 13.0 0.00 0.00 0.00 63 1004.9
20260505000204 77 214 8.7 14.8 0.00 0.00 0.00 63 1004.8
20260505000002 77 162 7.0 14.8 0.00 0.00 0.00 63 1004.8
20260504235900 77 178 7.0 13.0 0.00 0.00 0.00 63 1004.7
20260504235800 77 191 7.8 13.0 0.00 0.00 0.00 63 1004.9
20260504235700 77 182 8.7 13.0 0.00 0.00 0.00 62 1004.8
20260504235601 77 183 8.7 20.0 0.00 0.00 0.00 62 1004.9
20260504235501 77 190 9.6 20.0 0.00 0.00 0.00 62 1004.7
20260504235300 77 155 8.7 20.0 0.00 0.00 0.00 62 1004.7
20260504235201 77 180 7.8 20.0 0.00 0.00 0.00 62 1004.8
20260504235100 77 179 7.8 20.0 0.00 0.00 0.00 62 1004.7
20260504235001 77 163 8.7 20.0 0.00 0.00 0.00 62 1004.9
20260504234902 77 171 9.6 18.2 0.00 0.00 0.00 62 1004.7
20260504234801 77 184 9.6 18.2 0.00 0.00 0.00 62 1004.7
20260504234701 77 180 9.6 15.6 0.00 0.00 0.00 62 1004.9
20260504234600 77 165 8.7 15.6 0.00 0.00 0.00 62 1004.0
20260504234501 77 191 8.7 15.6 0.00 0.00 0.00 62 1004.8
20260504234401 77 187 7.8 15.6 0.00 0.00 0.00 62 1004.8
20260504234300 77 198 8.7 15.6 0.00 0.00 0.00 62 1005.0
20260504234100 77 188 10.4 15.6 0.00 0.00 0.00 62 1005.0
20260504234000 77 174 8.7 13.9 0.00 0.00 0.00 63 1004.9
20260504233900 77 165 8.7 13.0 0.00 0.00 0.00 62 1004.9
20260504233800 77 178 8.7 16.5 0.00 0.00 0.00 62 1004.9
20260504233701 77 180 7.8 16.5 0.00 0.00 0.00 62 1004.9
20260504233602 77 178 7.8 16.5 0.00 0.00 0.00 62 1004.9
20260504233500 77 148 7.0 16.5 0.00 0.00 0.00 62 1004.9
20260504233401 77 142 7.0 16.5 0.00 0.00 0.00 62 1004.9
20260504233200 77 186 7.8 14.8 0.00 0.00 0.00 62 1005.0
20260504233111 77 198 8.7 14.8 0.00 0.00 0.00 62 1003.9
20260504233101 77 198 8.7 14.8 0.00 0.00 0.00 62 1004.9
20260504233000 77 158 8.7 14.8 0.00 0.00 0.00 61 1004.9
20260504232900 77 171 7.0 15.6 0.00 0.00 0.00 61 1005.0
20260504232801 78 192 6.1 18.2 0.00 0.00 0.00 61 1005.0
20260504232700 78 227 7.8 18.2 0.00 0.00 0.00 61 1005.0
20260504232600 78 178 9.6 18.2 0.00 0.00 0.00 60 1005.0
20260504232500 78 166 9.6 18.2 0.00 0.00 0.00 60 1005.0
20260504232403 78 182 9.6 16.5 0.00 0.00 0.00 60 1004.9
20260504232300 78 193 8.7 16.5 0.00 0.00 0.00 61 1005.1
20260504232200 78 184 8.7 16.5 0.00 0.00 0.00 61 1005.1
20260504232101 78 192 9.6 16.5 0.00 0.00 0.00 60 1005.1
20260504232000 78 175 10.4 17.4 0.00 0.00 0.00 60 1005.1
20260504231800 78 171 8.7 16.5 0.00 0.00 0.00 59 1005.1
20260504231700 78 171 9.6 16.5 0.00 0.00 0.00 59 1005.1
20260504231603 78 164 10.4 18.2 0.00 0.00 0.00 60 1005.0
20260504231600 78 164 10.4 18.2 0.00 0.00 0.00 60 1004.1
20260504231501 79 166 10.4 18.2 0.00 0.00 0.00 60 1005.3
20260504231400 79 215 9.6 18.2 0.00 0.00 0.00 60 1005.3
20260504231300 78 196 7.8 16.5 0.00 0.00 0.00 60 1005.2
20260504231200 79 188 8.7 14.8 0.00 0.00 0.00 60 1005.2
20260504231100 78 193 8.7 14.8 0.00 0.00 0.00 59 1005.3
20260504231000 78 199 7.8 14.8 0.00 0.00 0.00 59 1005.4
20260504230900 78 208 7.0 14.8 0.00 0.00 0.00 60 1005.2
20260504230800 78 142 7.0 17.4 0.00 0.00 0.00 60 1005.2
20260504230701 78 213 7.8 17.4 0.00 0.00 0.00 60 1005.3
20260504230501 79 191 6.1 15.6 0.00 0.00 0.00 60 1005.2
20260504230400 79 165 6.1 15.6 0.00 0.00 0.00 60 1005.4
20260504230301 79 153 6.1 15.6 0.00 0.00 0.00 59 1005.2
20260504230201 79 190 7.0 15.6 0.00 0.00 0.00 58 1005.2
20260504230116 79 193 7.8 15.6 0.00 0.00 0.00 58 1004.1
20260504230100 79 193 7.8 15.6 0.00 0.00 0.00 58 1005.1
20260504230000 79 182 8.7 15.6 0.00 0.00 0.00 58 1005.1
20260504225900 79 189 10.4 18.2 0.00 0.00 0.00 59 1005.1
20260504225800 79 197 8.7 18.2 0.00 0.00 0.00 59 1005.1
20260504225700 79 166 8.7 18.2 0.00 0.00 0.00 59 1005.2
20260504225600 79 163 8.7 18.2 0.00 0.00 0.00 59 1005.3
20260504225459 79 196 10.4 18.2 0.00 0.00 0.00 59 1005.3
20260504225359 79 208 11.3 18.2 0.00 0.00 0.00 58 1005.3
20260504225259 79 171 12.2 18.2 0.00 0.00 0.00 58 1005.5
20260504225159 79 174 10.4 18.2 0.00 0.00 0.00 58 1005.4
20260504225100 79 194 10.4 20.0 0.00 0.00 0.00 58 1005.6
20260504224959 79 171 9.6 18.2 0.00 0.00 0.00 58 1005.6
20260504224859 79 219 11.3 18.2 0.00 0.00 0.00 58 1005.4
20260504224801 79 176 10.4 18.2 0.00 0.00 0.00 58 1005.6
20260504224659 80 214 8.7 17.4 0.00 0.00 0.00 60 1005.5
20260504224626 79 209 7.0 19.1 0.00 0.00 0.00 60 1004.6
20260504224601 79 209 7.8 19.1 0.00 0.00 0.00 60 1005.5
20260504224459 79 175 8.7 18.2 0.00 0.00 0.00 59 1005.5
20260504224359 79 196 10.4 18.2 0.00 0.00 0.00 58 1005.6
20260504224300 79 186 11.3 18.2 0.00 0.00 0.00 58 1005.5
20260504224159 79 175 11.3 18.2 0.00 0.00 0.00 58 1005.6
20260504224059 79 186 11.3 18.2 0.00 0.00 0.00 59 1005.4
20260504224000 79 161 11.3 18.2 0.00 0.00 0.00 58 1005.6
20260504223900 79 203 12.2 18.2 0.00 0.00 0.00 58 1005.5
20260504223802 79 176 13.0 18.2 0.00 0.00 0.00 58 1005.4
20260504223659 79 169 12.2 18.2 0.00 0.00 0.00 58 1005.4
20260504223559 80 155 12.2 18.2 0.00 0.00 0.00 58 1005.4
20260504223459 80 178 10.4 18.2 0.00 0.00 0.00 58 1005.4
20260504223400 80 172 9.6 18.2 0.00 0.00 0.00 58 1005.3
20260504223159 79 198 8.7 15.6 0.00 0.00 0.00 59 1005.3
20260504223106 79 205 8.7 15.6 0.00 0.00 0.00 59 1004.4
20260504223100 79 205 8.7 15.6 0.00 0.00 0.00 59 1005.3
20260504222959 79 210 7.8 15.6 0.00 0.00 0.00 58 1005.4
20260504222859 79 184 7.8 15.6 0.00 0.00 0.00 58 1005.4
20260504222759 79 201 8.7 15.6 0.00 0.00 0.00 58 1005.3
20260504222559 79 224 10.4 16.5 0.00 0.00 0.00 58 1005.3
20260504222459 79 187 9.6 16.5 0.00 0.00 0.00 58 1005.4
20260504222300 80 180 8.7 19.1 0.00 0.00 0.00 57 1005.4
20260504222200 80 200 9.6 17.4 0.00 0.00 0.00 58 1005.5
20260504222100 80 177 8.7 17.4 0.00 0.00 0.00 58 1005.3
20260504221959 80 183 8.7 17.4 0.00 0.00 0.00 58 1005.4
20260504221900 80 188 7.8 17.4 0.00 0.00 0.00 57 1005.4
20260504221800 80 182 8.7 17.4 0.00 0.00 0.00 57 1005.4
20260504221701 80 188 9.6 17.4 0.00 0.00 0.00 57 1005.6
20260504221559 80 165 9.6 18.2 0.00 0.00 0.00 57 1004.7
20260504221500 80 179 10.4 18.2 0.00 0.00 0.00 57 1005.7
20260504221400 80 184 9.6 17.4 0.00 0.00 0.00 57 1005.6
20260504221200 80 167 7.8 17.4 0.00 0.00 0.00 57 1005.7
20260504221059 80 190 7.8 17.4 0.00 0.00 0.00 57 1005.6
20260504220959 80 185 8.7 17.4 0.00 0.00 0.00 57 1005.6
20260504220800 80 175 9.6 20.0 0.00 0.00 0.00 58 1006.0
20260504220701 80 200 10.4 20.0 0.00 0.00 0.00 57 1005.7
20260504220559 79 171 10.4 20.0 0.00 0.00 0.00 58 1005.6
20260504220500 79 167 10.4 20.0 0.00 0.00 0.00 57 1005.6
20260504220359 79 187 8.7 20.0 0.00 0.00 0.00 57 1005.7
20260504220259 79 196 9.6 20.0 0.00 0.00 0.00 57 1005.7
20260504220200 79 207 11.3 20.0 0.00 0.00 0.00 57 1005.9
20260504220059 80 182 11.3 20.0 0.00 0.00 0.00 57 1005.8
20260504220000 80 152 11.3 20.0 0.00 0.00 0.00 57 1005.8
20260504215900 80 162 11.3 17.4 0.00 0.00 0.00 57 1005.8
20260504215801 80 178 10.4 16.5 0.00 0.00 0.00 57 1005.7
20260504215659 80 165 8.7 18.2 0.00 0.00 0.00 57 1005.6
20260504215559 80 217 9.6 16.5 0.00 0.00 0.00 58 1005.8
20260504215500 79 175 10.4 16.5 0.00 0.00 0.00 57 1005.5
20260504215359 79 191 10.4 16.5 0.00 0.00 0.00 56 1005.7
20260504215259 80 171 11.3 16.5 0.00 0.00 0.00 56 1005.6
20260504215059 80 200 10.4 14.8 0.00 0.00 0.00 56 1005.9
20260504214900 80 176 9.6 16.5 0.00 0.00 0.00 57 1005.6
20260504214700 80 180 8.7 16.5 0.00 0.00 0.00 57 1005.7
20260504214600 80 180 9.6 16.5 0.00 0.00 0.00 56 1005.9
20260504214559 80 180 8.7 16.5 0.00 0.00 0.00 56 1005.0
20260504214500 80 157 9.6 16.5 0.00 0.00 0.00 56 1006.2
20260504214300 80 196 10.4 16.5 0.00 0.00 0.00 56 1005.9
20260504214159 80 157 10.4 16.5 0.00 0.00 0.00 56 1005.9
20260504214059 80 178 10.4 16.5 0.00 0.00 0.00 56 1006.0
20260504214000 80 167 11.3 16.5 0.00 0.00 0.00 56 1006.0
20260504213859 80 169 11.3 19.1 0.00 0.00 0.00 56 1006.0
20260504213759 80 157 9.6 19.1 0.00 0.00 0.00 56 1005.9
20260504213600 80 167 10.4 19.1 0.00 0.00 0.00 56 1005.8
20260504213459 80 184 9.6 19.1 0.00 0.00 0.00 57 1005.8
20260504213400 80 184 9.6 19.1 0.00 0.00 0.00 56 1005.8
20260504213300 80 194 10.4 19.1 0.00 0.00 0.00 56 1005.9
20260504213103 80 176 11.3 19.1 0.00 0.00 0.00 55 1005.1
20260504213101 80 176 12.2 19.1 0.00 0.00 0.00 55 1006.0
20260504213001 80 178 11.3 19.1 0.00 0.00 0.00 55 1006.0
20260504212859 80 161 9.6 15.6 0.00 0.00 0.00 55 1006.3
20260504212759 80 184 7.8 15.6 0.00 0.00 0.00 55 1006.2
20260504212659 80 195 7.8 15.6 0.00 0.00 0.00 55 1006.1
20260504212600 80 203 7.0 15.6 0.00 0.00 0.00 56 1006.2
20260504212459 80 219 7.8 15.6 0.00 0.00 0.00 56 1006.4
20260504212359 80 202 8.7 15.6 0.00 0.00 0.00 56 1006.1